Regional Weather Roundup
Issued by NWS San Angelo, TX

Home | Current Version | Previous Version | Text Only | Print | Product List | Glossary On
Versions: 1 2 3 4 5 6 7 8 9 10 11 12 13 14 15 16 17 18 19 20 21 22 23 24 25 26 27 28 29 30 31 32 33 34 35 36 37 38 39 40 41 42 43 44 45 46 47 48 49 50
000
ASUS44 KSJT 042310
RWRSJT
WEST CENTRAL TEXAS REGIONAL WEATHER ROUNDUP
NATIONAL WEATHER SERVICE SAN ANGELO TX
600 PM CDT SAT JUL 04 2015

NOTE: "FAIR" INDICATES FEW OR NO CLOUDS BELOW 12,000 FEET WITH NO
SIGNIFICANT WEATHER AND/OR OBSTRUCTIONS TO VISIBILITY.

TXZ049-054-064>066-071>073-076>078-098-099-113-114-127-128-139-140-
154-155-168>170-050000
...LOCATIONS ACROSS WEST CENTRAL TEXAS...

CITY           SKY/WX    TMP DP  RH WIND       PRES   REMARKS
SAN ANGELO     SUNNY     92  63  38 SE9       29.93F
ABILENE        MOSUNNY   92  62  36 S15G21    29.92F
DYESS AFB      SUNNY     91  64  41 SW10      29.90F
JUNCTION       PTSUNNY   90  65  43 SE15G22   29.94F
SWEETWATER     SUNNY     89  61  39 SE14      29.97F
BROWNWOOD      MOSUNNY   93  63  36 S13       29.92F
COLEMAN        CLEAR     92  65  40 S8G17     29.93F
SONORA         SUNNY     88  63  42 S13G18    29.99S
OZONA          FAIR      88  59  37 SE15G24   29.98S
BRADY          MOSUNNY   90  63  40 N8        29.95F
$$

TEXAS PANHANDLE/OKLAHOMA PANHANDLE

CITY           SKY/WX    TMP DP  RH WIND       PRES   REMARKS
AMARILLO       MOSUNNY   88  60  38 S15G23    29.97F
BORGER         SUNNY     90  63  40 S14G20    29.93F
CANADIAN       SUNNY     91  69  48 S12       29.90F
DALHART        MOSUNNY   93  55  27 S21       29.97F
DUMAS          CLEAR     88  59  37 S21       29.96F
GUYMON         NOT AVBL
HEREFORD       PTCLDY    90  61  37 MISG      30.00F
PAMPA          PTCLDY    89  61  39 S14       29.96F
PERRYTON       SUNNY     92  57  31 S14       29.93S
$$

SOUTHERN PANHANDLE/SOUTH PLAINS/ROLLING PLAINS

CITY           SKY/WX    TMP DP  RH WIND       PRES   REMARKS
LUBBOCK        MOSUNNY   90  58  33 S13       29.97F
SNYDER         MOSUNNY   88  64  45 S8        29.95F
CHILDRESS      MOSUNNY   93  63  36 S14       29.89F
SEMINOLE       PTCLDY    88  57  34 S7        29.99R
$$

PERMIAN BASIN

CITY           SKY/WX    TMP DP  RH WIND       PRES   REMARKS
MIDLAND        PTSUNNY   90  62  39 SE15G23   29.95F
ODESSA         MOSUNNY   89  61  38 SE10G18   29.96F
WINK           MOSUNNY   91  60  35 E17G24    29.91F
$$

FAR WEST/SOUTHWEST MOUNTAINS/TRANS PECOS

CITY           SKY/WX    TMP DP  RH WIND       PRES   REMARKS
ALPINE         MOCLDY    80  62  54 S13       30.10R
DRYDEN           N/A     91  66  43 SE10G20   29.91F
EL PASO        PTSUNNY   95  50  21 VRB7      29.91F
FORT STOCKTON  SUNNY     88  63  43 SE16G23   29.95F
GUADALUPE PASS SUNNY     83  54  36 E21G28    30.09F
MARFA          CLOUDY   N/A N/A N/A SE9       30.09R
PECOS          PTCLDY    93  60  33 E15       29.90S
$$

DALLAS/FORT WORTH METROPLEX

CITY           SKY/WX    TMP DP  RH WIND       PRES   REMARKS
DFW AIRPORT    PTSUNNY   93  67  42 SW14G23   29.89F
FTW MEACHAM    SUNNY     94  68  42 SW9       29.88F
DAL-EXECUTIVE  MOSUNNY   90  69  50 VRB7      29.90F
GRAND PRAIRIE  SUNNY     91  70  49 S9        29.91F
ADDISON        NOT AVBL
MESQUITE       CLEAR     88  70  55 SE6       29.91F
LANCASTER      MOCLDY    92  67  44 S14       29.92F
$$

NORTH CENTRAL TEXAS

CITY           SKY/WX    TMP DP  RH WIND       PRES   REMARKS
SHRMAN/DENISON PTCLDY    90  74  59 SW8       29.92R
GAINESVILLE    PTSUNNY   85  72  65 E5        29.92S
BRIDGEPORT     PTCLDY    92  70  48 S8G16     29.91F
DENTON         MOSUNNY   91  70  49 S14       29.89F
WAXAHACHIE     PTCLDY    92  71  49 S12       29.92F
GRANBURY         N/A     95  66  38 S9        29.91F
$$

WESTERN NORTH TEXAS

CITY           SKY/WX    TMP DP  RH WIND       PRES   REMARKS
WICHITA FALLS  MOSUNNY   92  68  45 S12       29.87F
VERNON         CLEAR     99  54  22 S12       29.88F
BRECKENRIDGE   PTCLDY    93  60  33 S8        29.90F
COMANCHE       MOSUNNY   91  66  44 S10G21    29.93F
$$

CENTRAL AND SOUTH CENTRAL TEXAS

CITY           SKY/WX    TMP DP  RH WIND       PRES   REMARKS
AUSTIN/BERGSTM MOSUNNY   89  73  59 SE15      29.93F
WACO           SUNNY     93  70  46 S14       29.92F
HILLSBORO      CLEAR     91  69  49 S13G20    29.92F
TEMPLE         MOSUNNY   90  70  51 S14G21    29.93F
KILLEEN-GRAY   MOSUNNY   90  69  50 S14       29.93F
FORT HOOD      MOSUNNY   91  70  49 S10       29.93S
GEORGETOWN     MOSUNNY   90  72  55 SE12G18   29.92F
LAGO VISTA     FAIR      88  71  55 S9G18     29.97S
SAN MARCOS     MOSUNNY   88  72  58 SE18      29.94F
NEW BRAUNFELS  MOSUNNY   89  71  55 S15G22    29.92F
RANDOLPH AFB   MOSUNNY   89  71  54 S14       29.93F
SAN ANTONIO    PTSUNNY   89  70  53 SE18      29.93F
STINSON        MOSUNNY   89  72  56 SE10      29.90F
PLEASANTON     NOT AVBL
LA GRANGE      PTSUNNY   89  76  65 S13G20    29.94S
GIDDINGS       MOCLDY    88  73  61 S8        29.99F
$$

EAST TEXAS

CITY           SKY/WX    TMP DP  RH WIND       PRES   REMARKS
PARIS          CLOUDY    75  68  78 S12       29.93F THUNDER
CLARKSVILLE    NOT AVBL
TYLER          MOSUNNY   91  72  53 S7        29.95F
LONGVIEW       MOSUNNY   81  73  76 E13       29.96F
PALESTINE      PTCLDY    90  72  54 SW6       29.96F
NACOGDOCHES    PTSUNNY  N/A N/A N/A NW8       29.95S
$$

TEXAS HILL COUNTRY AND EDWARDS PLATEAU

CITY           SKY/WX    TMP DP  RH WIND       PRES   REMARKS
LLANO          PTCLDY    91  68  46 S10       29.96F
HORSESHOE BAY  FAIR      93  67  42 S8        29.94F
KERRVILLE      SUNNY     86  70  58 S17       29.97F
FREDERICKSBRG  MOSUNNY   87  66  49 S12G20    29.97F
ROCKSPRINGS    CLEAR     84  66  54 SE13      30.01S
HONDO          LGT RAIN  90  71  53 SE14      29.94F
UVALDE         CLEAR     89  72  56 SE14      29.91F
DEL RIO        MOSUNNY   92  68  45 SE18G25   29.87F
$$

SOUTHEAST TEXAS

CITY           SKY/WX    TMP DP  RH WIND       PRES   REMARKS
COLLEGE STN    SUNNY     89  72  56 S12       29.96F
CALDWELL       PTCLDY    86  79  79 SE6       29.99F
CROCKETT       PTCLDY    91  77  62 SW6       29.98F
BRENHAM        MOSUNNY   90  74  60 S12       29.97S
HUNTSVILLE     SUNNY     88  72  58 S14G21    29.98S
CONROE         LGT RAIN  83  72  69 SE10      29.99R
HOUSTON BUSH   PTSUNNY   88  77  69 S8        29.97F
HOUSTON HOBBY  CLOUDY    88  77  69 S9G16     29.97F
PERLAND        CLOUDY    89  76  65 S8        30.00F
WHARTON        CLOUDY    85  74  68 S8        29.98F
$$

THE UPPER TEXAS COAST

CITY           SKY/WX    TMP DP  RH WIND       PRES   REMARKS
ORANGE         LGT RAIN  84  73  67 S7        30.02F
PORT ARTHUR    CLOUDY    88  78  72 S10       29.99F
GALVESTON      CLOUDY    86  79  79 S10       30.01S
ANGLETON       PTSUNNY   86  77  74 S10       29.99S
BAY CITY       MOCLDY    88  76  68 S9        29.98F
$$

TEXAS COASTAL BEND, RIO GRANDE PLAINS DEEP SOUTH TEXAS

CITY           SKY/WX    TMP DP  RH WIND       PRES   REMARKS
VICTORIA       PTSUNNY   87  77  72 SE16      29.96F
BEEVILLE       FAIR      88  77  70 SE16      29.92F
ROCKPORT       LGT RAIN  88  77  69 SE15      29.94F
PORT ARANSAS   MOCLDY    85  79  82 SE9       29.94F
PORT LAVACA    NOT AVBL
CORPUS CHRISTI PTSUNNY   88  76  67 SE18      29.92F
KINGSVILLE NAS SUNNY     89  78  70 SE15      29.91F
COTULLA        LGT RAIN  93  70  46 SE18G24   29.87F
LAREDO         MOSUNNY   96  66  37 SE18G28   29.87F
BROWNSVILLE    SUNNY     87  70  56 S17       29.92F
PORT ISABEL    SUNNY     86  68  54 S18G25    29.92S
HEBBRONVILLE     N/A     91  71  52 E15       29.90F
MCALLEN        SUNNY     93  64  38 SE18G25   29.89F
WESLACO        SUNNY     90  64  42 S16       29.90F
FALFURRIAS     CLEAR     89  71  54 SE14      29.89F
EDINBURG       CLEAR     91  64  40 S16G26    29.90S
$$



USA.gov is the U.S. government's official web portal to all federal, state and local government web resources and services.